Dewpoint
37 37 37 38 39 39 38 38 38 39 39 39 39 38 38 36 34 35 35 34 33 32 31 31 29 29 29 30 32 33 36 36 35 38 41 44 44 45 47 49 56 57 58
37 38 38 40 40 40 40 40 39 38 39 39 39 39 39 37 36 36 36 34 32 33 32 33 32 30 30 31 32 33 35 34 36 38 41 43 43 44 45 46 50 52 53
37 38 40 40 40 40 40 41 41 40 39 39 39 39 38 39 39 39 38 35 34 33 33 32 32 32 30 31 32 32 32 34 36 36 39 40 39 39 38 41 44 47 48
38 39 39 39 39 39 41 41 41 41 40 39 39 39 39 39 39 39 38 39 36 34 33 34 33 33 31 31 32 32 33 35 36 38 38 36 36 37 36 34 33 35 39
39 39 39 39 39 39 39 41 41 41 40 39 39 39 40 39 39 39 38 38 38 37 35 34 35 34 34 33 33 35 35 36 38 40 35 34 33 32 31 32 31 31 31
38 38 38 39 38 38 38 38 39 40 41 40 39 38 39 39 39 40 40 39 38 36 36 36 34 35 36 37 37 38 38 39 41 37 34 32 30 31 32 31 32 32 30
37 37 37 37 37 36 37 37 37 37 40 42 40 39 38 39 39 39 41 40 40 39 38 38 39 38 39 40 40 41 43 43 42 38 33 31 30 31 31 30 30 30 29
36 36 36 36 36 36 37 36 35 37 38 39 41 41 40 40 41 41 41 42 41 40 40 41 41 40 40 38 36 35 34 34 35 34 32 31 32 32 32 32 31 31 31
35 35 36 35 35 36 36 36 35 35 35 36 40 39 39 41 43 44 43 44 43 42 42 42 42 43 42 38 35 33 33 34 37 37 37 37 36 35 34 33 31 30 29
33 33 34 35 35 36 35 35 33 33 33 34 35 38 40 39 40 39 38 38 36 36 38 43 44 41 40 37 33 31 29 30 32 32 33 35 36 37 36 34 32 30 30
33 32 32 33 33 33 34 34 33 32 32 32 32 33 35 40 40 40 38 35 34 34 34 34 36 37 36 35 33 32 31 32 32 31 31 31 32 32 32 29 29 29 24
32 31 31 31 32 31 32 32 32 32 31 30 30 31 30 34 38 38 38 38 38 35 35 36 37 37 36 35 34 34 31 29 28 27 26 24 24 25 26 27 28 27 26
30 31 30 30 31 32 32 31 31 30 29 28 29 28 26 25 27 32 33 32 32 32 32 30 29 28 27 27 26 25 25 24 23 23 23 24 25 26 27 28 28 28 27
28 29 29 29 29 31 32 32 31 30 29 28 27 27 26 25 23 23 23 23 23 24 25 25 25 25 25 25 25 25 25 25 25 24 24 25 26 26 26 27 26 27 27
27 27 28 28 27 28 31 32 31 31 30 28 28 27 27 26 26 25 24 23 23 23 23 24 23 24 24 24 25 25 24 24 23 23 23 23 23 24 25 25 25 25 24
27 28 28 27 26 25 26 29 31 31 30 30 29 28 28 28 28 27 26 26 25 24 23 23 23 24 24 24 24 24 24 23 23 23 23 23 23 23 23 23 23 23 22
27 28 28 27 27 24 23 23 23 26 29 30 30 29 28 27 27 27 26 27 26 25 24 24 24 24 24 24 24 23 23 23 24 23 23 23 23 23 23 22 23 23 22
28 29 29 28 27 26 23 22 22 22 22 23 25 27 27 27 27 28 26 25 25 26 26 26 26 26 26 26 26 25 25 25 25 25 25 25 25 25 24 24 24 24 24
30 30 29 29 28 27 25 23 22 22 22 23 23 23 25 25 25 25 25 25 25 26 26 27 27 27 27 27 27 27 26 25 25 25 25 25 25 25 25 24 25 24 24
32 31 30 29 28 26 25 23 23 23 24 24 24 23 23 24 24 24 26 26 26 27 28 28 28 28 29 28 28 27 26 26 25 25 25 25 25 24 24 24 24 23 23
32 32 31 30 28 26 23 21 21 22 22 23 24 24 23 23 24 25 25 26 27 28 29 29 30 31 31 30 29 28 27 27 26 26 25 24 24 24 24 24 24 24 23
31 30 30 30 28 26 24 23 22 22 22 22 22 24 25 25 26 27 28 28 29 29 30 30 30 30 30 30 30 29 28 28 28 27 27 26 25 24 24 24 24 24 24
31 29 29 30 28 25 25 24 23 23 23 23 23 24 25 26 27 28 28 29 30 30 31 31 31 31 30 30 30 30 28 27 27 26 26 25 25 25 25 24 25 25 25
32 29 29 29 28 25 24 23 23 23 23 24 24 25 26 27 28 28 29 30 31 31 32 31 30 28 28 29 29 30 29 29 27 27 26 26 25 25 25 24 24 25 25
32 29 29 28 26 24 24 24 24 24 24 24 24 26 27 27 28 29 30 31 32 32 31 31 30 28 27 27 28 29 29 27 27 26 26 26 25 25 25 25 24 25 25
31 29 29 28 27 25 24 24 24 24 24 25 26 26 27 28 29 30 31 31 32 32 32 31 28 27 27 28 29 29 29 27 25 25 25 24 23 23 22 22 21 22 23
Wind_Speed
33 32 31 29 27 25 23 24 23 22 20 20 18 19 19 20 19 19 20 19 19 20 20 20 18 17 15 14 14 12 12 16 21 18 17 9 12 16 16 16 12 10 12
33 32 32 28 25 24 22 22 22 21 18 18 17 17 17 17 15 17 19 19 20 19 19 19 18 20 17 16 14 13 15 17 18 18 12 4 4 11 14 19 7 21 21
34 30 29 28 28 28 27 26 22 17 15 14 15 15 15 15 13 14 18 17 18 18 20 19 17 24 17 15 15 15 17 16 14 15 11 4 3 7 11 14 16 22 27
31 29 28 29 30 30 28 29 28 2 8 10 12 13 13 13 15 14 14 17 15 17 16 14 18 20 18 17 15 15 12 12 16 18 4 5 6 8 12 10 9 17 22
31 29 29 28 29 31 32 28 28 14 3 5 6 9 10 12 12 13 14 14 16 17 13 14 14 15 19 17 15 15 16 17 16 8 8 5 6 9 8 6 8 23 24
31 30 29 28 30 30 31 31 29 27 17 3 4 5 7 8 10 15 14 13 13 13 13 13 14 18 22 25 25 23 21 18 18 9 9 14 9 16 11 9 8 13 25
32 31 30 30 30 31 31 32 32 31 31 8 5 3 3 6 10 12 12 15 12 14 11 9 9 9 11 11 13 13 22 32 15 13 21 17 21 14 16 21 22 15 19
32 31 30 29 30 31 32 33 33 31 30 33 16 8 3 2 7 10 12 8 12 10 10 9 9 10 9 16 17 19 22 21 18 17 21 21 20 16 17 19 21 17 17
31 30 28 28 29 30 31 31 29 31 32 29 27 27 29 28 26 13 11 4 9 12 10 9 9 5 21 26 23 26 23 23 29 34 34 30 28 26 19 18 15 18 17
28 28 29 27 27 26 26 27 27 28 30 29 33 29 33 28 34 32 25 19 25 29 32 19 13 26 29 30 25 23 29 22 21 24 25 25 23 24 23 16 15 17 13
23 24 27 29 26 28 24 22 23 25 26 28 30 32 33 35 36 39 35 26 24 28 28 28 31 39 41 41 33 28 29 25 27 25 22 19 16 16 13 11 10 9 13
22 22 25 28 26 25 27 26 25 20 22 25 26 27 28 30 38 42 43 39 32 30 27 26 32 39 39 37 31 34 32 24 19 19 19 17 16 15 15 16 19 19 14
22 21 21 23 27 26 26 27 24 24 22 22 23 22 20 21 23 36 38 37 36 30 27 34 37 37 34 31 32 30 24 20 20 21 20 19 17 17 17 18 18 19 20
22 22 20 20 21 28 25 24 27 26 23 24 23 23 24 24 20 18 17 19 26 25 28 29 31 32 30 27 24 23 20 20 19 19 18 17 15 15 15 13 15 14 17
21 20 20 18 19 18 24 27 24 28 28 21 23 22 22 24 26 29 25 21 21 27 24 22 22 22 23 23 22 21 18 17 18 17 17 16 15 14 13 12 13 13 14
21 18 19 17 16 16 15 15 32 33 33 33 32 25 24 29 30 31 32 31 30 28 22 23 23 22 21 20 19 19 18 19 17 16 16 15 15 14 14 14 13 13 13
19 19 16 17 16 16 16 16 17 18 31 33 33 31 30 27 28 29 31 33 32 30 24 23 22 21 20 19 18 18 18 17 15 16 16 15 14 15 14 14 14 15 14
19 19 15 15 15 14 15 15 15 17 19 19 24 27 30 32 31 28 26 27 28 25 22 21 21 20 19 19 19 18 17 17 17 17 17 17 17 17 17 16 15 14 13
18 16 14 13 13 14 13 14 15 17 18 18 17 20 21 26 27 30 34 25 22 22 20 20 19 19 18 17 17 16 17 18 17 17 17 17 16 15 15 13 13 15 13
15 18 15 13 13 13 13 14 15 16 17 18 20 20 17 19 23 24 24 21 21 20 19 19 19 18 18 17 17 16 17 17 17 17 17 16 15 13 12 11 11 11 11
13 13 15 12 13 13 13 14 15 15 16 17 18 19 21 18 19 21 20 20 19 19 18 17 17 17 17 16 16 16 17 16 16 16 16 15 12 12 11 12 12 12 11
12 11 11 12 11 12 13 13 14 14 15 15 15 16 19 18 18 18 18 18 17 16 15 15 15 15 15 16 16 15 16 16 15 14 14 11 10 10 11 11 13 13 12
11 11 10 10 10 11 12 13 13 13 14 15 14 14 15 16 16 16 16 15 15 15 15 16 15 15 15 15 15 14 14 14 13 13 11 10 11 11 12 13 13 12 12
10 10 9 10 10 9 10 11 12 14 13 14 13 13 14 14 15 15 14 14 14 14 15 15 16 19 16 15 14 14 13 12 11 12 11 11 11 11 11 12 12 10 9
8 8 8 8 8 8 9 10 11 11 11 12 12 12 12 12 13 13 13 13 13 14 15 15 15 16 18 19 18 16 16 17 13 12 11 11 13 12 12 12 11 12 13
7 7 7 6 6 7 7 8 9 10 10 10 10 10 10 11 11 11 11 12 12 13 13 13 15 18 18 16 17 18 20 19 18 17 13 13 12 12 12 12 13 13 13
Wind_Direction
326 322 318 312 306 295 284 277 270 267 255 250 248 249 255 253 238 244 249 250 245 252 247 251 252 241 242 243 239 236 238 254 269 281 282 306 323 324 321 352 282 230 250
327 324 321 319 326 329 325 298 269 255 254 241 240 240 239 248 240 237 241 242 245 242 240 249 251 253 235 239 250 239 242 252 254 267 282 354 349 347 359 29 39 86 82
331 327 337 343 342 335 328 323 295 241 234 236 226 230 230 231 237 242 231 234 241 242 242 240 243 249 237 236 237 237 245 259 284 280 257 63 36 12 32 38 49 85 87
334 343 347 350 350 347 346 358 9 131 216 233 220 224 223 218 226 224 230 235 243 243 241 238 244 256 237 240 251 262 269 267 260 264 129 118 76 41 61 49 45 56 79
350 352 355 356 358 359 0 2 13 19 316 242 231 214 218 224 220 217 220 220 224 249 230 238 245 255 267 258 250 256 254 253 252 239 133 133 127 93 64 67 74 86 63
355 357 358 1 4 5 5 7 5 12 2 226 193 192 203 213 228 221 213 213 221 234 238 240 245 248 249 249 253 256 245 241 242 153 144 148 120 109 106 106 97 98 97
360 1 2 5 7 9 10 10 11 9 20 76 113 127 182 225 249 252 238 209 211 224 243 233 252 253 257 260 267 269 272 250 180 174 141 138 125 122 113 93 78 75 80
2 3 4 7 11 12 14 15 14 19 25 38 47 44 24 248 261 258 256 207 207 222 231 232 238 254 259 103 92 74 63 65 84 98 107 108 103 99 94 99 104 91 71
3 3 5 9 14 17 18 18 21 26 30 27 40 43 39 44 47 56 57 32 202 214 222 222 233 278 121 116 97 92 88 90 100 101 100 100 98 97 97 100 87 91 81
4 5 6 10 18 19 21 21 25 31 35 37 37 33 48 51 52 55 54 59 66 61 53 53 82 94 95 90 82 84 79 71 77 79 78 77 82 89 85 76 86 92 95
3 10 11 13 18 22 20 26 32 34 35 38 40 36 31 52 56 59 60 61 65 70 67 69 76 81 83 81 79 80 84 82 78 80 79 80 84 93 105 116 139 146 111
8 14 18 18 20 24 25 19 25 31 40 42 42 42 38 36 56 59 64 66 66 71 72 77 81 81 80 81 86 90 92 92 91 89 89 88 86 79 75 71 68 74 85
15 14 24 25 25 24 29 28 26 29 32 41 42 42 48 53 53 55 65 70 72 74 78 82 80 78 79 80 83 81 78 78 79 80 81 82 84 89 89 84 76 71 66
18 16 20 27 33 33 32 34 34 30 35 37 43 45 46 42 46 52 60 70 74 76 75 76 74 75 76 77 75 74 76 77 78 79 79 79 80 78 78 76 78 76 73
15 23 19 22 26 41 47 40 41 44 43 44 48 49 51 53 58 63 63 61 64 69 68 67 66 66 66 63 60 61 63 68 76 80 80 78 77 76 77 84 86 85 81
15 16 21 24 25 29 36 54 54 51 51 54 56 58 60 64 63 63 63 62 64 65 62 61 62 61 63 65 67 66 64 66 69 74 76 80 82 81 78 71 68 70 76
17 16 22 24 25 29 35 37 42 49 54 51 53 55 57 57 57 60 63 61 58 56 55 54 54 54 57 59 61 62 62 60 64 68 69 69 70 73 75 75 72 70 68
14 19 26 28 24 30 39 43 42 44 47 47 48 50 51 53 53 52 55 55 48 45 49 50 50 51 51 50 49 52 57 57 56 59 62 65 63 61 59 59 61 68 68
18 14 20 29 29 31 41 46 49 48 47 40 33 35 39 49 51 50 51 50 47 45 44 46 45 45 44 47 49 52 55 60 61 60 62 62 63 70 78 76 73 75 71
11 21 24 30 32 34 40 46 52 53 53 45 38 27 27 39 42 44 45 44 44 43 41 42 39 39 41 42 44 47 50 52 53 58 60 61 64 66 68 68 68 68 64
6 17 22 34 37 35 42 47 54 59 59 55 47 36 39 48 48 48 45 42 40 39 38 38 36 33 33 34 40 44 50 51 50 55 58 59 58 62 63 64 63 59 60
8 20 28 34 41 40 47 51 54 56 57 56 50 45 43 49 49 48 45 41 37 36 35 37 38 36 33 34 31 37 45 48 49 51 52 58 60 61 60 57 58 56 50
9 21 31 33 36 49 53 51 52 57 60 59 54 49 46 48 48 46 45 41 36 33 31 35 37 36 31 34 30 30 41 41 44 60 56 48 53 53 53 60 59 54 45
10 21 36 40 34 48 64 68 62 57 61 63 59 54 51 50 48 45 42 39 37 33 28 30 36 42 38 33 35 33 27 30 47 55 57 54 52 50 52 54 54 62 63
12 22 35 38 37 56 63 68 65 61 62 64 63 60 56 53 48 44 42 39 38 35 32 28 32 39 43 41 40 38 34 42 49 60 64 64 62 56 52 54 48 47 47
13 27 35 43 41 48 61 71 74 70 67 65 65 62 60 57 51 47 43 42 39 37 33 30 34 36 37 41 43 37 40 44 49 57 61 61 60 56 54 52 51 49 44